| time (UTC) | temp F | wind direction | speed MPH | gust MPH | rain 1hr in | rain 24hr in | rain mn in | humidity % | barometer mb |
| 20260502214527 | 48 | 295 | 6.0 | 12.0 | 0.00 | 0.14 | 0.01 | 51 | 1011.6 |
| 20260502214010 | 48 | 286 | 5.0 | 12.0 | 0.00 | 0.14 | 0.01 | 50 | 1011.7 |
| 20260502213511 | 49 | 328 | 6.0 | 12.0 | 0.00 | 0.14 | 0.01 | 48 | 1011.6 |
| 20260502213039 | 50 | 327 | 6.0 | 12.0 | 0.00 | 0.14 | 0.01 | 50 | 1011.5 |
| 20260502212512 | 49 | 338 | 6.0 | 12.0 | 0.00 | 0.14 | 0.01 | 51 | 1011.5 |
| 20260502212012 | 49 | 276 | 4.0 | 11.0 | 0.00 | 0.14 | 0.01 | 48 | 1011.4 |
| 20260502211531 | 49 | 249 | 5.0 | 12.0 | 0.00 | 0.14 | 0.01 | 47 | 1011.4 |
| 20260502211009 | 50 | 273 | 5.0 | 12.0 | 0.00 | 0.14 | 0.01 | 48 | 1011.4 |
| 20260502210513 | 51 | 298 | 5.0 | 13.0 | 0.00 | 0.14 | 0.01 | 49 | 1011.3 |
| 20260502210028 | 49 | 16 | 2.0 | 13.0 | 0.00 | 0.14 | 0.01 | 51 | 1011.4 |
| 20260502205512 | 50 | 277 | 7.0 | 15.0 | 0.00 | 0.14 | 0.01 | 46 | 1011.5 |
| 20260502205010 | 50 | 292 | 5.0 | 15.0 | 0.00 | 0.14 | 0.01 | 47 | 1011.4 |
| 20260502204526 | 51 | 293 | 7.0 | 15.0 | 0.00 | 0.14 | 0.01 | 45 | 1011.5 |
| 20260502204012 | 51 | 43 | 4.0 | 11.0 | 0.00 | 0.14 | 0.01 | 48 | 1011.4 |
| 20260502203512 | 50 | 24 | 5.0 | 12.0 | 0.00 | 0.14 | 0.01 | 52 | 1011.5 |
| 20260502203028 | 49 | 39 | 6.0 | 12.0 | 0.00 | 0.14 | 0.01 | 51 | 1011.4 |
| 20260502202511 | 49 | 335 | 6.0 | 10.0 | 0.00 | 0.14 | 0.01 | 48 | 1011.5 |
| 20260502202012 | 50 | 333 | 3.0 | 13.0 | 0.00 | 0.14 | 0.01 | 48 | 1011.7 |
| 20260502201532 | 51 | 355 | 5.0 | 13.0 | 0.00 | 0.14 | 0.01 | 47 | 1011.6 |
| 20260502201012 | 51 | 342 | 5.0 | 14.0 | 0.00 | 0.14 | 0.01 | 50 | 1011.8 |
| 20260502200513 | 52 | 5 | 7.0 | 14.0 | 0.00 | 0.14 | 0.01 | 47 | 1011.8 |
| 20260502200030 | 51 | 344 | 5.0 | 14.0 | 0.00 | 0.14 | 0.01 | 49 | 1011.7 |
| 20260502195511 | 50 | 253 | 6.0 | 14.0 | 0.00 | 0.14 | 0.01 | 49 | 1011.8 |
| 20260502195010 | 50 | 296 | 5.0 | 12.0 | 0.00 | 0.14 | 0.01 | 48 | 1011.9 |
| 20260502194528 | 49 | 340 | 5.0 | 12.0 | 0.00 | 0.14 | 0.01 | 48 | 1012.0 |
| 20260502194012 | 49 | 310 | 6.0 | 14.0 | 0.00 | 0.14 | 0.01 | 47 | 1012.1 |
| 20260502193510 | 49 | 315 | 5.0 | 14.0 | 0.00 | 0.14 | 0.01 | 47 | 1012.3 |
| 20260502193029 | 49 | 278 | 6.0 | 11.0 | 0.00 | 0.14 | 0.01 | 49 | 1012.3 |
| 20260502192512 | 49 | 302 | 6.0 | 11.0 | 0.00 | 0.14 | 0.01 | 47 | 1012.4 |
| 20260502192012 | 49 | 22 | 4.0 | 11.0 | 0.00 | 0.14 | 0.01 | 47 | 1012.4 |
| 20260502191528 | 50 | 230 | 2.0 | 14.0 | 0.00 | 0.14 | 0.01 | 52 | 1012.5 |
| 20260502191013 | 49 | 17 | 6.0 | 14.0 | 0.00 | 0.14 | 0.01 | 50 | 1012.5 |
| 20260502190513 | 49 | 355 | 5.0 | 11.0 | 0.00 | 0.14 | 0.01 | 47 | 1012.5 |
| 20260502190029 | 49 | 315 | 5.0 | 15.0 | 0.00 | 0.14 | 0.01 | 48 | 1012.6 |
| 20260502185509 | 49 | 340 | 7.0 | 17.0 | 0.00 | 0.14 | 0.01 | 46 | 1012.7 |
| 20260502185011 | 50 | 309 | 6.0 | 17.0 | 0.00 | 0.14 | 0.01 | 47 | 1012.5 |
| 20260502184529 | 49 | 317 | 2.0 | 9.0 | 0.00 | 0.14 | 0.01 | 48 | 1012.5 |
| 20260502184012 | 48 | 18 | 4.0 | 7.0 | 0.00 | 0.14 | 0.01 | 49 | 1012.9 |
| 20260502183509 | 48 | 61 | 3.0 | 9.0 | 0.00 | 0.14 | 0.01 | 50 | 1012.7 |
| 20260502183029 | 48 | 267 | 4.0 | 9.0 | 0.00 | 0.14 | 0.01 | 48 | 1012.7 |
| 20260502182510 | 48 | 305 | 4.0 | 8.0 | 0.00 | 0.14 | 0.01 | 49 | 1012.8 |
| 20260502182012 | 48 | 318 | 1.0 | 7.0 | 0.00 | 0.14 | 0.01 | 52 | 1012.8 |
| 20260502181532 | 48 | 5 | 2.0 | 7.0 | 0.00 | 0.14 | 0.01 | 54 | 1012.8 |
| 20260502181012 | 47 | 284 | 4.0 | 9.0 | 0.00 | 0.14 | 0.01 | 51 | 1012.9 |
| 20260502180512 | 47 | 294 | 5.0 | 11.0 | 0.00 | 0.14 | 0.01 | 52 | 1012.9 |
| 20260502170514 | 47 | 229 | 4.0 | 9.0 | 0.00 | 0.14 | 0.01 | 52 | 1012.8 |
| 20260502164012 | 49 | 355 | 6.0 | 11.0 | 0.00 | 0.14 | 0.01 | 57 | 1012.8 |
| 20260502163511 | 48 | 241 | 3.0 | 11.0 | 0.00 | 0.14 | 0.01 | 51 | 1012.9 |
| 20260502163028 | 49 | 17 | 4.0 | 11.0 | 0.00 | 0.14 | 0.01 | 52 | 1012.9 |
| 20260502162515 | 48 | 9 | 4.0 | 12.0 | 0.00 | 0.14 | 0.01 | 53 | 1013.0 |
| 20260502162012 | 48 | 321 | 8.0 | 12.0 | 0.00 | 0.14 | 0.01 | 53 | 1013.1 |
| 20260502161530 | 47 | 251 | 5.0 | 11.0 | 0.00 | 0.14 | 0.01 | 54 | 1012.9 |
| 20260502161012 | 48 | 263 | 5.0 | 11.0 | 0.00 | 0.14 | 0.01 | 50 | 1013.0 |
| 20260502160514 | 47 | 343 | 3.0 | 11.0 | 0.00 | 0.14 | 0.01 | 53 | 1013.0 |
| 20260502152011 | 48 | 345 | 6.0 | 14.0 | 0.00 | 0.14 | 0.01 | 58 | 1013.1 |
| 20260502151528 | 47 | 5 | 3.0 | 14.0 | 0.00 | 0.14 | 0.01 | 58 | 1013.0 |
| 20260502151012 | 48 | 348 | 5.0 | 12.0 | 0.00 | 0.14 | 0.01 | 55 | 1013.0 |
| 20260502150512 | 48 | 337 | 5.0 | 12.0 | 0.00 | 0.14 | 0.01 | 57 | 1013.0 |
| 20260502130512 | 45 | 12 | 4.0 | 9.0 | 0.00 | 0.14 | 0.01 | 76 | 1013.4 |
| 20260502123511 | 43 | 300 | 3.0 | 6.0 | 0.00 | 0.14 | 0.01 | 84 | 1013.3 |
| 20260502123028 | 42 | 312 | 1.0 | 6.0 | 0.00 | 0.14 | 0.01 | 84 | 1013.3 |
| 20260502122602 | 42 | 0 | 1.0 | 3.0 | 0.00 | 0.14 | 0.01 | 85 | 1013.3 |
| 20260502122015 | 41 | 36 | 1.0 | 3.0 | 0.00 | 0.14 | 0.01 | 87 | 1013.2 |
| 20260502121531 | 41 | 0 | 0.0 | 2.0 | 0.00 | 0.14 | 0.01 | 88 | 1013.2 |
| 20260502121017 | 40 | 0 | 0.0 | 6.0 | 0.00 | 0.14 | 0.01 | 88 | 1013.3 |
| 20260502120514 | 40 | 321 | 2.0 | 6.0 | 0.00 | 0.14 | 0.01 | 88 | 1013.3 |
| 20260502115514 | 40 | 310 | 2.0 | 5.0 | 0.00 | 0.14 | 0.01 | 89 | 1013.2 |
| 20260502115014 | 40 | 336 | 2.0 | 5.0 | 0.00 | 0.14 | 0.01 | 89 | 1013.2 |
| 20260502114529 | 40 | 342 | 3.0 | 4.0 | 0.00 | 0.14 | 0.01 | 90 | 1013.3 |
| 20260502114015 | 40 | 332 | 2.0 | 4.0 | 0.00 | 0.14 | 0.01 | 90 | 1013.2 |
| 20260502113512 | 40 | 336 | 0.0 | 4.0 | 0.00 | 0.14 | 0.01 | 90 | 1013.2 |
| 20260502113028 | 40 | 301 | 2.0 | 4.0 | 0.00 | 0.14 | 0.01 | 90 | 1013.3 |
| 20260502112514 | 40 | 298 | 1.0 | 2.0 | 0.00 | 0.14 | 0.01 | 90 | 1013.3 |
| 20260502112016 | 40 | 294 | 0.0 | 4.0 | 0.00 | 0.14 | 0.01 | 91 | 1013.4 |
| 20260502111530 | 40 | 293 | 1.0 | 4.0 | 0.00 | 0.14 | 0.01 | 90 | 1013.4 |
| 20260502111011 | 40 | 0 | 1.0 | 4.0 | 0.00 | 0.14 | 0.01 | 90 | 1013.3 |
| 20260502110511 | 40 | 321 | 0.0 | 4.0 | 0.00 | 0.14 | 0.01 | 90 | 1013.3 |
| 20260502110027 | 39 | 296 | 2.0 | 4.0 | 0.00 | 0.14 | 0.01 | 90 | 1013.3 |
| 20260502105517 | 39 | 306 | 0.0 | 2.0 | 0.00 | 0.14 | 0.01 | 90 | 1013.2 |
| 20260502105012 | 39 | 0 | 0.0 | 0.0 | 0.00 | 0.14 | 0.01 | 90 | 1013.0 |
| 20260502104530 | 39 | 0 | 0.0 | 1.0 | 0.00 | 0.14 | 0.01 | 90 | 1012.9 |
| 20260502104014 | 39 | 0 | 0.0 | 4.0 | 0.00 | 0.14 | 0.01 | 90 | 1012.9 |
| 20260502103512 | 39 | 0 | 0.0 | 4.0 | 0.00 | 0.14 | 0.01 | 90 | 1013.0 |
| 20260502103031 | 39 | 311 | 2.0 | 4.0 | 0.00 | 0.14 | 0.01 | 90 | 1013.0 |
| 20260502102514 | 39 | 321 | 2.0 | 4.0 | 0.00 | 0.14 | 0.01 | 90 | 1012.9 |
| 20260502102013 | 39 | 311 | 1.0 | 4.0 | 0.00 | 0.14 | 0.01 | 90 | 1012.8 |
| 20260502101535 | 39 | 309 | 1.0 | 4.0 | 0.00 | 0.14 | 0.01 | 90 | 1012.9 |
| 20260502101011 | 39 | 298 | 2.0 | 6.0 | 0.00 | 0.14 | 0.01 | 90 | 1012.7 |
| 20260502100512 | 39 | 345 | 2.0 | 7.0 | 0.00 | 0.14 | 0.01 | 90 | 1012.6 |
| 20260502091526 | 39 | 329 | 2.0 | 5.0 | 0.00 | 0.14 | 0.01 | 90 | 1012.3 |
| 20260502091011 | 39 | 302 | 2.0 | 5.0 | 0.00 | 0.14 | 0.01 | 91 | 1012.4 |
| 20260502090511 | 39 | 294 | 0.0 | 3.0 | 0.00 | 0.14 | 0.01 | 91 | 1012.4 |
| 20260502071529 | 42 | 335 | 1.0 | 8.0 | 0.00 | 0.13 | 0.00 | 95 | 1011.2 |
| 20260502071013 | 42 | 298 | 3.0 | 7.0 | 0.00 | 0.13 | 0.00 | 95 | 1011.2 |
| 20260502070513 | 42 | 309 | 3.0 | 6.0 | 0.00 | 0.13 | 0.00 | 95 | 1011.2 |
| 20260502070028 | 42 | 332 | 2.0 | 5.0 | 0.00 | 0.13 | 0.00 | 95 | 1011.1 |
| 20260502065510 | 42 | 331 | 2.0 | 5.0 | 0.00 | 0.13 | 0.00 | 95 | 1011.3 |
| 20260502065011 | 42 | 309 | 3.0 | 5.0 | 0.00 | 0.13 | 0.00 | 95 | 1011.5 |
| 20260502064541 | 42 | 330 | 2.0 | 5.0 | 0.00 | 0.13 | 0.00 | 95 | 1011.5 |
| 20260502064013 | 42 | 355 | 2.0 | 6.0 | 0.00 | 0.13 | 0.00 | 95 | 1011.5 |
| 20260502063512 | 42 | 336 | 2.0 | 5.0 | 0.00 | 0.13 | 0.00 | 96 | 1011.4 |
| 20260502063034 | 42 | 355 | 2.0 | 10.0 | 0.00 | 0.13 | 0.00 | 96 | 1011.4 |
| 20260502062515 | 42 | 318 | 3.0 | 10.0 | 0.00 | 0.13 | 0.00 | 96 | 1011.6 |
| 20260502062015 | 42 | 331 | 4.0 | 10.0 | 0.00 | 0.13 | 0.00 | 95 | 1011.6 |
| 20260502061526 | 43 | 323 | 2.0 | 9.0 | 0.00 | 0.13 | 0.00 | 96 | 1011.7 |
| 20260502061012 | 43 | 5 | 4.0 | 9.0 | 0.00 | 0.13 | 0.00 | 96 | 1011.6 |
| 20260502060511 | 43 | 279 | 3.0 | 8.0 | 0.00 | 0.13 | 0.00 | 96 | 1011.7 |
| 20260502060029 | 43 | 284 | 2.0 | 7.0 | 0.00 | 0.13 | 0.00 | 96 | 1011.6 |
| 20260502055511 | 43 | 288 | 1.0 | 4.0 | 0.00 | 0.13 | 0.00 | 96 | 1011.5 |
| 20260502055009 | 43 | 0 | 0.0 | 3.0 | 0.00 | 0.13 | 0.00 | 96 | 1011.6 |
| 20260502054530 | 43 | 228 | 1.0 | 3.0 | 0.00 | 0.13 | 0.00 | 96 | 1011.5 |
| 20260502054010 | 43 | 0 | 0.0 | 3.0 | 0.00 | 0.13 | 0.00 | 96 | 1011.6 |
| 20260502053508 | 43 | 0 | 0.0 | 4.0 | 0.00 | 0.13 | 0.00 | 96 | 1011.8 |
| 20260502053028 | 43 | 194 | 1.0 | 4.0 | 0.00 | 0.13 | 0.00 | 96 | 1011.7 |
| 20260502052514 | 44 | 193 | 0.0 | 3.0 | 0.00 | 0.13 | 0.00 | 96 | 1011.6 |
| 20260502052013 | 43 | 204 | 0.0 | 3.0 | 0.00 | 0.13 | 0.00 | 96 | 1011.7 |
| 20260502051532 | 43 | 0 | 1.0 | 3.0 | 0.00 | 0.13 | 0.00 | 96 | 1011.7 |
| 20260502051010 | 43 | 0 | 0.0 | 1.0 | 0.00 | 0.13 | 0.00 | 96 | 1011.7 |
| 20260502050513 | 44 | 0 | 0.0 | 2.0 | 0.00 | 0.13 | 0.00 | 96 | 1011.7 |
| 20260502050028 | 44 | 0 | 0.0 | 2.0 | 0.00 | 0.13 | 0.00 | 96 | 1011.7 |
| 20260502045512 | 44 | 0 | 0.0 | 2.0 | 0.00 | 0.14 | 0.00 | 96 | 1011.7 |
| 20260502045012 | 44 | 0 | 0.0 | 3.0 | 0.00 | 0.14 | 0.00 | 96 | 1011.8 |
| 20260502044534 | 44 | 0 | 0.0 | 3.0 | 0.00 | 0.14 | 0.00 | 96 | 1011.7 |
| 20260502044015 | 44 | 0 | 0.0 | 3.0 | 0.00 | 0.14 | 0.00 | 96 | 1011.8 |
| 20260502043511 | 44 | 196 | 1.0 | 4.0 | 0.00 | 0.14 | 0.00 | 96 | 1011.8 |
| 20260502043028 | 44 | 0 | 1.0 | 4.0 | 0.01 | 0.14 | 0.00 | 96 | 1011.6 |
| 20260502042511 | 44 | 213 | 1.0 | 3.0 | 0.01 | 0.14 | 0.00 | 96 | 1011.6 |
| 20260502042012 | 43 | 212 | 0.0 | 3.0 | 0.01 | 0.14 | 0.00 | 96 | 1011.5 |
| 20260502041530 | 44 | 0 | 0.0 | 0.0 | 0.01 | 0.14 | 0.00 | 96 | 1011.6 |
| 20260502041011 | 44 | 0 | 0.0 | 0.0 | 0.01 | 0.14 | 0.00 | 95 | 1011.6 |
| 20260502040512 | 44 | 0 | 0.0 | 0.0 | 0.02 | 0.14 | 0.00 | 95 | 1011.7 |
| 20260502040039 | 44 | 0 | 0.0 | 1.0 | 0.02 | 0.14 | 0.00 | 95 | 1011.7 |
| 20260502035512 | 44 | 0 | 0.0 | 1.0 | 0.03 | 0.14 | 0.14 | 95 | 1011.7 |
| 20260502035013 | 43 | 0 | 0.0 | 1.0 | 0.03 | 0.14 | 0.14 | 95 | 1011.6 |
| 20260502034530 | 43 | 0 | 0.0 | 1.0 | 0.03 | 0.14 | 0.14 | 95 | 1011.7 |
| 20260502034012 | 43 | 0 | 0.0 | 1.0 | 0.03 | 0.14 | 0.14 | 95 | 1011.6 |
| 20260502033513 | 43 | 0 | 0.0 | 1.0 | 0.03 | 0.14 | 0.14 | 95 | 1011.6 |
| 20260502033030 | 43 | 0 | 0.0 | 68.0 | 0.02 | 0.13 | 0.13 | 95 | 1011.6 |
| 20260502032511 | 43 | 0 | 0.0 | 68.0 | 0.02 | 0.13 | 0.13 | 95 | 1011.8 |
| 20260502032012 | 44 | 0 | 0.0 | 3.0 | 0.02 | 0.13 | 0.13 | 95 | 1011.7 |
| 20260502031528 | 43 | 0 | 0.0 | 0.0 | 0.02 | 0.13 | 0.13 | 95 | 1011.8 |
| 20260502031013 | 43 | 0 | 0.0 | 0.0 | 0.02 | 0.13 | 0.13 | 95 | 1011.7 |
| 20260502030513 | 44 | 0 | 0.0 | 0.0 | 0.01 | 0.12 | 0.12 | 95 | 1011.6 |
| 20260502030030 | 44 | 0 | 0.0 | 0.0 | 0.01 | 0.12 | 0.12 | 95 | 1011.7 |
| 20260502025512 | 44 | 0 | 0.0 | 0.0 | 0.00 | 0.11 | 0.11 | 95 | 1011.8 |
| 20260502025015 | 44 | 0 | 0.0 | 0.0 | 0.01 | 0.11 | 0.11 | 95 | 1011.8 |
| 20260502024527 | 44 | 0 | 0.0 | 0.0 | 0.01 | 0.11 | 0.11 | 95 | 1011.8 |
| 20260502024013 | 44 | 0 | 0.0 | 0.0 | 0.01 | 0.11 | 0.11 | 95 | 1011.8 |
| 20260502023512 | 44 | 0 | 0.0 | 0.0 | 0.02 | 0.11 | 0.11 | 95 | 1011.9 |
| 20260502023028 | 44 | 0 | 0.0 | 0.0 | 0.02 | 0.11 | 0.11 | 94 | 1011.8 |
| 20260502022512 | 44 | 0 | 0.0 | 0.0 | 0.02 | 0.11 | 0.11 | 94 | 1011.8 |
| 20260502022016 | 44 | 0 | 0.0 | 0.0 | 0.02 | 0.11 | 0.11 | 94 | 1011.9 |
| 20260502021529 | 44 | 0 | 0.0 | 0.0 | 0.02 | 0.11 | 0.11 | 94 | 1012.0 |
| 20260502021012 | 44 | 0 | 0.0 | 0.0 | 0.02 | 0.11 | 0.11 | 94 | 1012.1 |
| 20260502020513 | 44 | 0 | 0.0 | 0.0 | 0.02 | 0.11 | 0.11 | 94 | 1012.1 |
| 20260502020028 | 44 | 0 | 0.0 | 0.0 | 0.03 | 0.11 | 0.11 | 94 | 1012.1 |
| 20260502015515 | 44 | 0 | 0.0 | 0.0 | 0.03 | 0.11 | 0.11 | 94 | 1012.0 |
| 20260502015012 | 44 | 0 | 0.0 | 0.0 | 0.03 | 0.10 | 0.10 | 94 | 1012.0 |
| 20260502014540 | 44 | 0 | 0.0 | 0.0 | 0.04 | 0.10 | 0.10 | 94 | 1012.1 |
| 20260502014012 | 44 | 0 | 0.0 | 0.0 | 0.03 | 0.09 | 0.09 | 93 | 1011.9 |
| 20260502013513 | 44 | 0 | 0.0 | 0.0 | 0.03 | 0.09 | 0.09 | 93 | 1011.8 |
| 20260502013028 | 44 | 0 | 0.0 | 0.0 | 0.03 | 0.09 | 0.09 | 93 | 1012.0 |
| 20260502012512 | 44 | 0 | 0.0 | 0.0 | 0.03 | 0.09 | 0.09 | 93 | 1012.0 |
| 20260502012013 | 44 | 0 | 0.0 | 1.0 | 0.04 | 0.09 | 0.09 | 93 | 1012.0 |
| 20260502011526 | 44 | 0 | 0.0 | 1.0 | 0.04 | 0.09 | 0.09 | 93 | 1011.9 |
| 20260502011012 | 44 | 0 | 0.0 | 0.0 | 0.04 | 0.09 | 0.09 | 93 | 1011.9 |
| 20260502010512 | 44 | 0 | 0.0 | 0.0 | 0.05 | 0.09 | 0.09 | 92 | 1012.1 |
| 20260502010033 | 44 | 0 | 0.0 | 0.0 | 0.04 | 0.08 | 0.08 | 92 | 1012.0 |
| 20260502005514 | 44 | 0 | 0.0 | 0.0 | 0.05 | 0.08 | 0.08 | 92 | 1012.0 |
| 20260502005011 | 44 | 0 | 0.0 | 0.0 | 0.04 | 0.07 | 0.07 | 92 | 1012.1 |
| 20260502004533 | 44 | 0 | 0.0 | 0.0 | 0.03 | 0.06 | 0.06 | 91 | 1012.1 |
| 20260502004012 | 45 | 0 | 0.0 | 0.0 | 0.04 | 0.06 | 0.06 | 91 | 1012.0 |
| 20260502003515 | 45 | 0 | 0.0 | 1.0 | 0.04 | 0.06 | 0.06 | 91 | 1011.8 |
| 20260502003027 | 45 | 0 | 0.0 | 1.0 | 0.04 | 0.06 | 0.06 | 91 | 1011.9 |
| 20260502002513 | 45 | 0 | 0.0 | 0.0 | 0.04 | 0.06 | 0.06 | 90 | 1011.9 |
| 20260502002013 | 45 | 0 | 0.0 | 0.0 | 0.04 | 0.05 | 0.05 | 90 | 1011.8 |
| 20260502001540 | 45 | 0 | 0.0 | 2.0 | 0.04 | 0.05 | 0.05 | 89 | 1011.8 |
| 20260502001013 | 45 | 0 | 0.0 | 2.0 | 0.03 | 0.04 | 0.04 | 89 | 1011.8 |
| 20260502000511 | 45 | 0 | 0.0 | 5.0 | 0.03 | 0.04 | 0.04 | 89 | 1011.8 |
| 20260502000027 | 45 | 0 | 0.0 | 5.0 | 0.02 | 0.03 | 0.03 | 89 | 1011.7 |
| 20260501235511 | 45 | 335 | 2.0 | 5.0 | 0.02 | 0.03 | 0.03 | 88 | 1011.8 |
| 20260501235011 | 45 | 292 | 1.0 | 4.0 | 0.02 | 0.03 | 0.03 | 88 | 1011.7 |
| 20260501234528 | 46 | 309 | 1.0 | 4.0 | 0.02 | 0.03 | 0.03 | 87 | 1011.6 |
| 20260501234012 | 46 | 292 | 1.0 | 8.0 | 0.01 | 0.02 | 0.02 | 87 | 1011.6 |
| 20260501233513 | 46 | 304 | 3.0 | 8.0 | 0.01 | 0.02 | 0.02 | 86 | 1011.6 |
| 20260501233028 | 46 | 277 | 1.0 | 7.0 | 0.01 | 0.02 | 0.02 | 86 | 1011.5 |
| 20260501232516 | 46 | 295 | 3.0 | 7.0 | 0.01 | 0.02 | 0.02 | 85 | 1011.5 |
| 20260501232011 | 46 | 313 | 2.0 | 5.0 | 0.00 | 0.01 | 0.01 | 85 | 1011.3 |
| 20260501231529 | 47 | 321 | 2.0 | 5.0 | 0.00 | 0.01 | 0.01 | 84 | 1011.4 |
| 20260501231013 | 47 | 343 | 2.0 | 5.0 | 0.00 | 0.01 | 0.01 | 84 | 1011.3 |
| 20260501230513 | 47 | 300 | 2.0 | 5.0 | 0.00 | 0.01 | 0.01 | 83 | 1011.3 |
| 20260501230030 | 47 | 317 | 2.0 | 5.0 | 0.00 | 0.01 | 0.01 | 81 | 1011.2 |
| 20260501225513 | 47 | 322 | 1.0 | 4.0 | 0.00 | 0.01 | 0.01 | 81 | 1011.2 |
| 20260501225012 | 48 | 323 | 2.0 | 5.0 | 0.00 | 0.01 | 0.01 | 80 | 1011.1 |
| 20260501224527 | 48 | 324 | 2.0 | 5.0 | 0.00 | 0.01 | 0.01 | 79 | 1011.1 |
| 20260501224014 | 48 | 275 | 2.0 | 5.0 | 0.00 | 0.01 | 0.01 | 78 | 1011.2 |
| 20260501223512 | 48 | 292 | 2.0 | 5.0 | 0.00 | 0.01 | 0.01 | 78 | 1011.2 |
| 20260501223030 | 49 | 315 | 3.0 | 5.0 | 0.00 | 0.01 | 0.01 | 77 | 1011.1 |
| 20260501222512 | 49 | 315 | 2.0 | 4.0 | 0.00 | 0.01 | 0.01 | 76 | 1011.2 |
| 20260501222014 | 49 | 315 | 1.0 | 5.0 | 0.00 | 0.01 | 0.01 | 75 | 1011.2 |
| 20260501221528 | 49 | 315 | 3.0 | 5.0 | 0.00 | 0.01 | 0.01 | 73 | 1011.3 |
| 20260501221014 | 50 | 325 | 2.0 | 5.0 | 0.00 | 0.01 | 0.01 | 72 | 1011.2 |
| 20260501220511 | 50 | 313 | 3.0 | 5.0 | 0.00 | 0.01 | 0.01 | 70 | 1011.2 |
| 20260501220030 | 50 | 281 | 2.0 | 5.0 | 0.00 | 0.01 | 0.01 | 70 | 1011.2 |
| 20260501215514 | 50 | 289 | 2.0 | 5.0 | 0.00 | 0.01 | 0.01 | 67 | 1011.2 |
| 20260501215014 | 50 | 269 | 2.0 | 5.0 | 0.00 | 0.01 | 0.01 | 68 | 1011.1 |